owner,sensor,date,latitude,longitude,vertical_datum,direction_of_sea_water_velocity,sea_water_speed,upward_sea_water_velocity,qcFlag 
ADCP,ioos:station:wmo:42390:1,2017-09-15T17:24:00Z,26.1290,-94.8980,62.6,28.0,13.7,-12.3,'1111122,1111122,1111122' 
ADCP,ioos:station:wmo:42390:1,2017-09-15T18:24:00Z,26.1290,-94.8980,62.6,35.0,10.5,-9.5,'1111122,1111122,1111122' 
ADCP,ioos:station:wmo:42390:1,2017-09-15T20:24:00Z,26.1290,-94.8980,62.6,14.0,20.7,-18.7,'1111122,1111122,1111122' 
ADCP,ioos:station:wmo:42390:1,2017-09-15T21:24:00Z,26.1290,-94.8980,62.6,8.0,19.4,-17.2,'1111122,1111122,1111122' 
ADCP,ioos:station:wmo:42390:1,2017-09-15T22:24:00Z,26.1290,-94.8980,62.6,4.0,21.2,-20.9,'1111122,1111122,1111122' 
ADCP,ioos:station:wmo:42390:1,2017-09-16T00:24:00Z,26.1290,-94.8980,62.6,341.0,16.1,-16.8,'1111122,1111122,1111122' 
ADCP,ioos:station:wmo:42390:1,2017-09-16T01:24:00Z,26.1290,-94.8980,62.6,338.0,22.2,-26.9,'1111122,1111122,1111122' 
ADCP,ioos:station:wmo:42390:1,2017-09-16T02:24:00Z,26.1290,-94.8980,62.6,348.0,29.5,-31.9,'1111122,1111122,1111122' 
ADCP,ioos:station:wmo:42390:1,2017-09-16T03:24:00Z,26.1290,-94.8980,62.6,330.0,8.8,-11.1,'1111122,1111122,1111122' 
ADCP,ioos:station:wmo:42390:1,2017-09-16T04:24:00Z,26.1290,-94.8980,62.6,245.0,8.1,-7.6,'1111122,1111122,1111122' 
ADCP,ioos:station:wmo:42390:1,2017-09-16T05:24:00Z,26.1290,-94.8980,62.6,240.0,2.4,-11.6,'1111122,1111122,1111122' 
ADCP,ioos:station:wmo:42390:1,2017-09-16T06:24:00Z,26.1290,-94.8980,62.6,190.0,2.3,-4.3,'1111122,1111122,1111122' 
ADCP,ioos:station:wmo:42390:1,2017-09-16T07:24:00Z,26.1290,-94.8980,62.6,162.0,19.5,5.4,'1111122,1111122,1111122' 
ADCP,ioos:station:wmo:42390:1,2017-09-16T08:24:00Z,26.1290,-94.8980,62.6,158.0,32.6,16.3,'1111122,1111122,1111122' 
ADCP,ioos:station:wmo:42390:1,2017-09-16T09:24:00Z,26.1290,-94.8980,62.6,164.0,35.4,21.1,'1111122,1111122,1111122' 
ADCP,ioos:station:wmo:42390:1,2017-09-16T10:24:00Z,26.1290,-94.8980,62.6,157.0,33.3,17.2,'1111122,1111122,1111122' 
ADCP,ioos:station:wmo:42390:1,2017-09-16T11:24:00Z,26.1290,-94.8980,62.6,150.0,38.7,22.3,'1111122,1111122,1111122' 
ADCP,ioos:station:wmo:42390:1,2017-09-16T12:24:00Z,26.1290,-94.8980,62.6,161.0,35.4,17.2,'1111122,1111122,1111122' 
ADCP,ioos:station:wmo:42390:1,2017-09-16T13:24:00Z,26.1290,-94.8980,62.6,153.0,39.8,23.9,'1111122,1111122,1111122' 
ADCP,ioos:station:wmo:42390:1,2017-09-16T14:24:00Z,26.1290,-94.8980,62.6,154.0,36.2,22.3,'1111122,1111122,1111122' 
ADCP,ioos:station:wmo:42390:1,2017-09-16T15:24:00Z,26.1290,-94.8980,62.6,147.0,27.4,12.8,'1111122,1111122,1111122' 
ADCP,ioos:station:wmo:42390:1,2017-09-16T16:24:00Z,26.1290,-94.8980,62.6,35.0,5.5,-9.2,'1111122,1111122,1111122' 
ADCP,ioos:station:wmo:42390:1,2017-09-16T17:24:00Z,26.1290,-94.8980,62.6,353.0,14.6,-16.4,'1111122,1111122,1111122' 
ADCP,ioos:station:wmo:42390:1,2017-09-16T18:24:00Z,26.1290,-94.8980,62.6,8.0,8.2,-11.2,'1111122,1111122,1111122' 
ADCP,ioos:station:wmo:42390:1,2017-09-16T19:24:00Z,26.1290,-94.8980,62.6,352.0,13.7,-15.6,'1111122,1111122,1111122' 
ADCP,ioos:station:wmo:42390:1,2017-09-16T20:24:00Z,26.1290,-94.8980,62.6,306.0,12.6,-17.7,'1111122,1111122,1111122' 
ADCP,ioos:station:wmo:42390:1,2017-09-16T21:24:00Z,26.1290,-94.8980,62.6,271.0,5.3,-11.1,'1111122,1111122,1111122' 
ADCP,ioos:station:wmo:42390:1,2017-09-16T22:24:00Z,26.1290,-94.8980,62.6,333.0,17.9,-21.6,'1111122,1111122,1111122' 
ADCP,ioos:station:wmo:42390:1,2017-09-16T23:24:00Z,26.1290,-94.8980,62.6,292.0,5.0,-11.6,'1111122,1111122,1111122' 
ADCP,ioos:station:wmo:42390:1,2017-09-17T00:24:00Z,26.1290,-94.8980,62.6,335.0,6.8,-17.7,'1111122,1111122,1111122' 
ADCP,ioos:station:wmo:42390:1,2017-09-17T01:24:00Z,26.1290,-94.8980,62.6,349.0,20.2,-23.7,'1111122,1111122,1111122' 
ADCP,ioos:station:wmo:42390:1,2017-09-17T02:24:00Z,26.1290,-94.8980,62.6,26.0,17.4,-18.9,'1111122,1111122,1111122' 
ADCP,ioos:station:wmo:42390:1,2017-09-17T03:24:00Z,26.1290,-94.8980,62.6,38.0,13.7,-15.9,'1111122,1111122,1111122' 
ADCP,ioos:station:wmo:42390:1,2017-09-17T04:24:00Z,26.1290,-94.8980,62.6,48.0,11.1,-11.9,'1111122,1111122,1111122' 
ADCP,ioos:station:wmo:42390:1,2017-09-17T05:24:00Z,26.1290,-94.8980,62.6,143.0,21.8,9.8,'1111122,1111122,1111122' 
ADCP,ioos:station:wmo:42390:1,2017-09-17T06:24:00Z,26.1290,-94.8980,62.6,138.0,25.0,12.8,'1111122,1111122,1111122' 
ADCP,ioos:station:wmo:42390:1,2017-09-17T07:24:00Z,26.1290,-94.8980,62.6,152.0,11.8,5.4,'1111122,1111122,1111122' 
ADCP,ioos:station:wmo:42390:1,2017-09-17T09:24:00Z,26.1290,-94.8980,62.6,145.0,30.5,18.3,'1111122,1111122,1111122' 
ADCP,ioos:station:wmo:42390:1,2017-09-17T10:24:00Z,26.1290,-94.8980,62.6,154.0,34.8,20.6,'1111122,1111122,1111122' 
ADCP,ioos:station:wmo:42390:1,2017-09-17T13:24:00Z,26.1290,-94.8980,62.6,152.0,44.4,31.3,'1111122,1111122,1111122' 
ADCP,ioos:station:wmo:42390:1,2017-09-17T15:24:00Z,26.1290,-94.8980,62.6,144.0,30.8,17.2,'1111122,1111122,1111122' 
ADCP,ioos:station:wmo:42390:1,2017-09-17T16:24:00Z,26.1290,-94.8980,62.6,145.0,19.3,5.7,'1111122,1111122,1111122' 
ADCP,ioos:station:wmo:42390:1,2017-09-17T18:24:00Z,26.1290,-94.8980,62.6,50.0,9.7,-6.5,'1111122,1111122,1111122' 
ADCP,ioos:station:wmo:42390:1,2017-09-17T19:24:00Z,26.1290,-94.8980,62.6,350.0,12.6,-13.6,'1111122,1111122,1111122' 
ADCP,ioos:station:wmo:42390:1,2017-09-17T20:24:00Z,26.1290,-94.8980,62.6,359.0,12.7,-15.9,'1111122,1111122,1111122' 
ADCP,ioos:station:wmo:42390:1,2017-09-17T21:24:00Z,26.1290,-94.8980,62.6,0.0,16.2,-21.0,'1111122,1114422,1111122' 
ADCP,ioos:station:wmo:42390:1,2017-09-17T22:24:00Z,26.1290,-94.8980,62.6,348.0,11.9,-16.0,'1111122,1111122,1111122' 
ADCP,ioos:station:wmo:42390:1,2017-09-17T23:24:00Z,26.1290,-94.8980,62.6,352.0,13.6,-25.6,'1111122,1111122,1111122' 
ADCP,ioos:station:wmo:42390:1,2017-09-18T00:24:00Z,26.1290,-94.8980,62.6,71.0,3.9,-13.3,'1111122,1111122,1111122' 
ADCP,ioos:station:wmo:42390:1,2017-09-18T02:34:00Z,26.1290,-94.8980,62.6,2.0,16.2,-14.7,'1111122,1111122,1111122' 
ADCP,ioos:station:wmo:42390:1,2017-09-18T04:34:00Z,26.1290,-94.8980,62.6,67.0,18.1,-5.3,'1111122,1111122,1111122' 
ADCP,ioos:station:wmo:42390:1,2017-09-18T05:34:00Z,26.1290,-94.8980,62.6,52.0,14.9,-11.0,'1111122,1111122,1111122' 
ADCP,ioos:station:wmo:42390:1,2017-09-18T06:34:00Z,26.1290,-94.8980,62.6,137.0,24.8,11.9,'1111122,1111122,1111122' 
ADCP,ioos:station:wmo:42390:1,2017-09-18T07:34:00Z,26.1290,-94.8980,62.6,148.0,35.5,24.2,'1111122,1111122,1111122' 
ADCP,ioos:station:wmo:42390:1,2017-09-18T08:24:00Z,26.1290,-94.8980,62.6,150.0,33.3,20.5,'1111122,1111122,1111122' 
ADCP,ioos:station:wmo:42390:1,2017-09-18T09:34:00Z,26.1290,-94.8980,62.6,143.0,35.5,23.1,'1111122,1111122,1111122' 
ADCP,ioos:station:wmo:42390:1,2017-09-18T11:34:00Z,26.1290,-94.8980,62.6,150.0,43.7,25.1,'1111122,1111122,1111122' 
ADCP,ioos:station:wmo:42390:1,2017-09-18T12:34:00Z,26.1290,-94.8980,62.6,151.0,48.5,30.1,'1111122,1111122,1111122' 
ADCP,ioos:station:wmo:42390:1,2017-09-18T13:34:00Z,26.1290,-94.8980,62.6,149.0,37.0,18.9,'1111122,1111122,1111122' 
ADCP,ioos:station:wmo:42390:1,2017-09-18T16:34:00Z,26.1290,-94.8980,62.6,142.0,30.5,14.4,'1111122,1111122,1111122' 
ADCP,ioos:station:wmo:42390:1,2017-09-18T17:34:00Z,26.1290,-94.8980,62.6,142.0,23.6,11.1,'1111122,1111122,1111122' 
ADCP,ioos:station:wmo:42390:1,2017-09-19T09:34:00Z,26.1290,-94.8980,62.6,153.0,41.6,28.0,'1111122,1111122,1111122' 
ADCP,ioos:station:wmo:42390:1,2017-09-19T10:34:00Z,26.1290,-94.8980,62.6,148.0,43.8,33.8,'1111122,1111122,1111122' 
ADCP,ioos:station:wmo:42390:1,2017-09-19T11:34:00Z,26.1290,-94.8980,62.6,155.0,39.4,28.1,'1111122,1111122,1111122' 
ADCP,ioos:station:wmo:42390:1,2017-09-19T13:24:00Z,26.1290,-94.8980,62.6,149.0,31.2,14.0,'1111122,1111122,1111122' 
ADCP,ioos:station:wmo:42390:1,2017-09-19T14:34:00Z,26.1290,-94.8980,62.6,144.0,26.4,13.1,'1111122,1111122,1111122' 
ADCP,ioos:station:wmo:42390:1,2017-09-19T15:34:00Z,26.1290,-94.8980,62.6,142.0,28.2,16.5,'1111122,1111122,1111122' 
ADCP,ioos:station:wmo:42390:1,2017-09-19T16:24:00Z,26.1290,-94.8980,62.6,119.0,15.9,0.2,'1111122,1111122,1111122' 
ADCP,ioos:station:wmo:42390:1,2017-09-19T17:24:00Z,26.1290,-94.8980,62.6,131.0,14.5,1.1,'1111122,1111122,1111122' 
ADCP,ioos:station:wmo:42390:1,2017-09-19T18:34:00Z,26.1290,-94.8980,62.6,140.0,15.5,-1.1,'1111122,1111122,1111122' 
ADCP,ioos:station:wmo:42390:1,2017-09-19T19:34:00Z,26.1290,-94.8980,62.6,148.0,4.5,-11.1,'1111122,1111122,1111122' 
ADCP,ioos:station:wmo:42390:1,2017-09-19T21:34:00Z,26.1290,-94.8980,62.6,4.0,10.2,-17.5,'1111122,1111122,1111122' 
ADCP,ioos:station:wmo:42390:1,2017-09-19T22:34:00Z,26.1290,-94.8980,62.6,336.0,6.9,-19.0,'1111122,1111122,1111122' 
ADCP,ioos:station:wmo:42390:1,2017-09-19T23:34:00Z,26.1290,-94.8980,62.6,333.0,7.5,-22.5,'1111122,1111122,1111122' 
ADCP,ioos:station:wmo:42390:1,2017-09-20T00:34:00Z,26.1290,-94.8980,62.6,134.0,6.4,-10.8,'1111122,1111122,1111122' 
ADCP,ioos:station:wmo:42390:1,2017-09-20T01:34:00Z,26.1290,-94.8980,62.6,288.0,0.3,-14.4,'1111122,1111122,1111122' 
ADCP,ioos:station:wmo:42390:1,2017-09-20T02:24:00Z,26.1290,-94.8980,62.6,6.0,8.1,-21.1,'1111122,1111122,1111122' 
ADCP,ioos:station:wmo:42390:1,2017-09-20T03:24:00Z,26.1290,-94.8980,62.6,52.0,5.2,-14.1,'1111122,1111122,1111122' 
ADCP,ioos:station:wmo:42390:1,2017-09-20T04:34:00Z,26.1290,-94.8980,62.6,7.0,1.7,-14.1,'1111122,1111122,1111122' 
ADCP,ioos:station:wmo:42390:1,2017-09-20T05:34:00Z,26.1290,-94.8980,62.6,21.0,7.0,-17.1,'1111122,1111122,1111122' 
ADCP,ioos:station:wmo:42390:1,2017-09-20T06:34:00Z,26.1290,-94.8980,62.6,6.0,4.6,-16.7,'1111122,1111122,1111122' 
ADCP,ioos:station:wmo:42390:1,2017-09-20T07:34:00Z,26.1290,-94.8980,62.6,357.0,14.9,-21.3,'1111122,1111122,1111122' 
ADCP,ioos:station:wmo:42390:1,2017-09-20T08:24:00Z,26.1290,-94.8980,62.6,354.0,9.5,-17.1,'1111122,1111122,1111122' 
ADCP,ioos:station:wmo:42390:1,2017-09-20T09:34:00Z,26.1290,-94.8980,62.6,125.0,7.4,-4.8,'1111122,1111122,1111122' 
ADCP,ioos:station:wmo:42390:1,2017-09-20T11:34:00Z,26.1290,-94.8980,62.6,141.0,14.6,-0.9,'1111122,1111122,1111122' 
ADCP,ioos:station:wmo:42390:1,2017-09-20T12:34:00Z,26.1290,-94.8980,62.6,132.0,9.5,-3.8,'1111122,1111122,1111122' 
ADCP,ioos:station:wmo:42390:1,2017-09-20T13:34:00Z,26.1290,-94.8980,62.6,147.0,17.8,1.8,'1111122,1111122,1111122' 
ADCP,ioos:station:wmo:42390:1,2017-09-20T15:34:00Z,26.1290,-94.8980,62.6,134.0,6.6,-5.7,'1111122,1111122,1111122' 
ADCP,ioos:station:wmo:42390:1,2017-09-20T16:34:00Z,26.1290,-94.8980,62.6,149.0,24.6,9.8,'1111122,1111122,1111122' 
ADCP,ioos:station:wmo:42390:1,2017-09-20T17:24:00Z,26.1290,-94.8980,62.6,35.0,11.9,-16.9,'1111122,1111122,1111122' 
ADCP,ioos:station:wmo:42390:1,2017-09-20T17:54:00Z,26.1290,-94.8980,62.6,4.0,16.4,-25.7,'1111122,1111122,1111122' 
ADCP,ioos:station:wmo:42390:1,2017-09-20T19:34:00Z,26.1290,-94.8980,62.6,5.0,23.7,-28.5,'1111122,1111122,1111122' 
ADCP,ioos:station:wmo:42390:1,2017-09-20T20:34:00Z,26.1290,-94.8980,62.6,3.0,19.5,-25.6,'1111122,1111122,1111122' 
ADCP,ioos:station:wmo:42390:1,2017-09-20T21:24:00Z,26.1290,-94.8980,62.6,5.0,18.6,-24.5,'1111122,1111122,1111122' 
ADCP,ioos:station:wmo:42390:1,2017-09-20T22:24:00Z,26.1290,-94.8980,62.6,352.0,23.5,-32.4,'1111122,1111122,1111122' 
ADCP,ioos:station:wmo:42390:1,2017-09-20T23:34:00Z,26.1290,-94.8980,62.6,6.0,8.7,-17.0,'1111122,1111122,1111122' 
ADCP,ioos:station:wmo:42390:1,2017-09-21T00:34:00Z,26.1290,-94.8980,62.6,203.0,2.5,-12.7,'1111122,1111122,1111122' 
ADCP,ioos:station:wmo:42390:1,2017-09-21T01:34:00Z,26.1290,-94.8980,62.6,342.0,12.3,-22.9,'1111122,1111122,1111122' 
ADCP,ioos:station:wmo:42390:1,2017-09-21T02:34:00Z,26.1290,-94.8980,62.6,38.0,2.8,-11.6,'1111122,1111122,1111122' 
ADCP,ioos:station:wmo:42390:1,2017-09-21T04:24:00Z,26.1290,-94.8980,62.6,150.0,12.1,0.7,'1111122,1111122,1111122' 
ADCP,ioos:station:wmo:42390:1,2017-09-21T05:34:00Z,26.1290,-94.8980,62.6,114.0,15.7,1.3,'1111122,1111122,1111122' 
ADCP,ioos:station:wmo:42390:1,2017-09-21T06:34:00Z,26.1290,-94.8980,62.6,131.0,15.0,3.2,'1111122,1111122,1111122' 
ADCP,ioos:station:wmo:42390:1,2017-09-21T07:34:00Z,26.1290,-94.8980,62.6,111.0,5.6,-1.3,'1111122,1111122,1111122' 
ADCP,ioos:station:wmo:42390:1,2017-09-21T08:34:00Z,26.1290,-94.8980,62.6,110.0,11.5,2.3,'1111122,1111122,1111122' 
ADCP,ioos:station:wmo:42390:1,2017-09-21T09:34:00Z,26.1290,-94.8980,62.6,130.0,11.1,4.0,'1111122,1111122,1111122' 
ADCP,ioos:station:wmo:42390:1,2017-09-21T10:24:00Z,26.1290,-94.8980,62.6,114.0,11.9,2.6,'1111122,1111122,1111122' 
ADCP,ioos:station:wmo:42390:1,2017-09-21T11:34:00Z,26.1290,-94.8980,62.6,116.0,7.6,-1.2,'1111122,1111122,1111122' 
ADCP,ioos:station:wmo:42390:1,2017-09-21T12:34:00Z,26.1290,-94.8980,62.6,142.0,25.9,6.4,'1111122,1111122,1111122' 
ADCP,ioos:station:wmo:42390:1,2017-09-21T13:34:00Z,26.1290,-94.8980,62.6,151.0,11.5,-4.1,'1111122,1111122,1111122' 
ADCP,ioos:station:wmo:42390:1,2017-09-21T16:24:00Z,26.1290,-94.8980,62.6,353.0,25.0,-34.1,'1111122,1111122,1111122' 
ADCP,ioos:station:wmo:42390:1,2017-09-21T18:24:00Z,26.1290,-94.8980,62.6,360.0,21.4,-26.4,'1111122,1111122,1111122' 
ADCP,ioos:station:wmo:42390:1,2017-09-21T19:34:00Z,26.1290,-94.8980,62.6,2.0,18.6,-27.3,'1111122,1111122,1111122' 
ADCP,ioos:station:wmo:42390:1,2017-09-21T20:24:00Z,26.1290,-94.8980,62.6,349.0,20.9,-27.7,'1111122,1111122,1111122' 
ADCP,ioos:station:wmo:42390:1,2017-09-21T21:34:00Z,26.1290,-94.8980,62.6,338.0,6.1,-17.9,'1111122,1111122,1111122' 
ADCP,ioos:station:wmo:42390:1,2017-09-21T22:34:00Z,26.1290,-94.8980,62.6,167.0,7.4,-7.2,'1111122,1111122,1111122' 
ADCP,ioos:station:wmo:42390:1,2017-09-21T23:24:00Z,26.1290,-94.8980,62.6,56.0,0.4,-12.6,'1111122,1111122,1111122' 
ADCP,ioos:station:wmo:42390:1,2017-09-22T00:24:00Z,26.1290,-94.8980,62.6,131.0,5.7,-8.2,'1111122,1111122,1111122' 
ADCP,ioos:station:wmo:42390:1,2017-09-22T01:24:00Z,26.1290,-94.8980,62.6,18.0,3.8,-10.0,'1111122,1111122,1111122' 
ADCP,ioos:station:wmo:42390:1,2017-09-22T03:34:00Z,26.1290,-94.8980,62.6,1.0,12.3,-19.2,'1111122,1111122,1111122' 
ADCP,ioos:station:wmo:42390:1,2017-09-22T04:24:00Z,26.1290,-94.8980,62.6,25.0,8.4,-15.5,'1111122,1111122,1111122' 
ADCP,ioos:station:wmo:42390:1,2017-09-22T05:34:00Z,26.1290,-94.8980,62.6,132.0,11.0,-4.8,'1111122,1111122,1111122' 
ADCP,ioos:station:wmo:42390:1,2017-09-22T06:24:00Z,26.1290,-94.8980,62.6,112.0,6.9,-6.5,'1111122,1111122,1111122' 
ADCP,ioos:station:wmo:42390:1,2017-09-22T07:24:00Z,26.1290,-94.8980,62.6,75.0,6.2,-10.2,'1111122,1111122,1111122' 
ADCP,ioos:station:wmo:42390:1,2017-09-22T08:24:00Z,26.1290,-94.8980,62.6,133.0,12.9,2.1,'1111122,1111122,1111122' 
ADCP,ioos:station:wmo:42390:1,2017-09-22T09:24:00Z,26.1290,-94.8980,62.6,138.0,27.8,10.9,'1111122,1111122,1111122' 
ADCP,ioos:station:wmo:42390:1,2017-09-22T10:24:00Z,26.1290,-94.8980,62.6,111.0,10.6,-5.0,'1111122,1111122,1111122' 
ADCP,ioos:station:wmo:42390:1,2017-09-22T11:24:00Z,26.1290,-94.8980,62.6,144.0,16.8,1.5,'1111122,1111122,1111122' 
ADCP,ioos:station:wmo:42390:1,2017-09-22T12:24:00Z,26.1290,-94.8980,62.6,151.0,14.7,-4.7,'1111122,1111122,1111122' 
ADCP,ioos:station:wmo:42390:1,2017-09-22T13:24:00Z,26.1290,-94.8980,62.6,118.0,13.4,-6.8,'1111122,1111122,1111122' 
ADCP,ioos:station:wmo:42390:1,2017-09-22T14:24:00Z,26.1290,-94.8980,62.6,144.0,13.8,-3.3,'1111122,1111122,1111122' 
ADCP,ioos:station:wmo:42390:1,2017-09-22T16:24:00Z,26.1290,-94.8980,62.6,142.0,21.1,-3.5,'1111122,1111122,1111122' 
ADCP,ioos:station:wmo:42390:1,2017-09-22T17:24:00Z,26.1290,-94.8980,62.6,138.0,13.0,-6.3,'1111122,1111122,1111122' 
ADCP,ioos:station:wmo:42390:1,2017-09-22T19:24:00Z,26.1290,-94.8980,62.6,161.0,16.7,-2.5,'1111122,1111122,1111122' 
ADCP,ioos:station:wmo:42390:1,2017-09-22T20:24:00Z,26.1290,-94.8980,62.6,156.0,30.1,8.0,'1111122,1111122,1111122' 
ADCP,ioos:station:wmo:42390:1,2017-09-22T21:24:00Z,26.1290,-94.8980,62.6,145.0,15.2,-5.5,'1111122,1111122,1111122' 
ADCP,ioos:station:wmo:42390:1,2017-09-22T22:24:00Z,26.1290,-94.8980,62.6,95.0,6.1,-14.1,'1111122,1111122,1111122' 
ADCP,ioos:station:wmo:42390:1,2017-09-22T23:24:00Z,26.1290,-94.8980,62.6,17.0,7.7,-22.1,'1111122,1111122,1111122' 
ADCP,ioos:station:wmo:42390:1,2017-09-23T00:24:00Z,26.1290,-94.8980,62.6,102.0,3.4,-16.0,'1111122,1111122,1111122' 
ADCP,ioos:station:wmo:42390:1,2017-09-23T01:34:00Z,26.1290,-94.8980,62.6,50.0,5.6,-15.7,'1111122,1111122,1111122' 
ADCP,ioos:station:wmo:42390:1,2017-09-23T02:24:00Z,26.1290,-94.8980,62.6,96.0,11.2,-10.5,'1111122,1111122,1111122' 
ADCP,ioos:station:wmo:42390:1,2017-09-23T03:24:00Z,26.1290,-94.8980,62.6,69.0,6.0,-12.1,'1111122,1111122,1111122' 
ADCP,ioos:station:wmo:42390:1,2017-09-23T04:24:00Z,26.1290,-94.8980,62.6,41.0,11.3,-18.6,'1111122,1111122,1111122' 
ADCP,ioos:station:wmo:42390:1,2017-09-23T05:24:00Z,26.1290,-94.8980,62.6,20.0,14.8,-26.6,'1111122,1111122,1111122' 
ADCP,ioos:station:wmo:42390:1,2017-09-23T06:34:00Z,26.1290,-94.8980,62.6,9.0,14.9,-26.7,'1111122,1111122,1111122' 
ADCP,ioos:station:wmo:42390:1,2017-09-23T07:24:00Z,26.1290,-94.8980,62.6,54.0,12.3,-14.7,'1111122,1111122,1111122' 
ADCP,ioos:station:wmo:42390:1,2017-09-23T08:34:00Z,26.1290,-94.8980,62.6,3.0,18.4,-24.8,'1111122,1111122,1111122' 
ADCP,ioos:station:wmo:42390:1,2017-09-23T09:24:00Z,26.1290,-94.8980,62.6,28.0,9.5,-18.3,'1111122,1111122,1111122' 
ADCP,ioos:station:wmo:42390:1,2017-09-23T10:24:00Z,26.1290,-94.8980,62.6,29.0,11.4,-21.1,'1111122,1111122,1111122' 
ADCP,ioos:station:wmo:42390:1,2017-09-23T11:34:00Z,26.1290,-94.8980,62.6,0.0,14.6,-27.5,'1111122,1114422,1111122' 
ADCP,ioos:station:wmo:42390:1,2017-09-23T12:24:00Z,26.1290,-94.8980,62.6,120.0,13.8,-9.2,'1111122,1111122,1111122' 
ADCP,ioos:station:wmo:42390:1,2017-09-23T14:24:00Z,26.1290,-94.8980,62.6,147.0,10.5,-5.9,'1111122,1111122,1111122' 
ADCP,ioos:station:wmo:42390:1,2017-09-23T15:24:00Z,26.1290,-94.8980,62.6,56.0,8.5,-12.3,'1111122,1111122,1111122' 
ADCP,ioos:station:wmo:42390:1,2017-09-23T16:24:00Z,26.1290,-94.8980,62.6,7.0,10.6,-19.2,'1111122,1111122,1111122' 
ADCP,ioos:station:wmo:42390:1,2017-09-23T18:24:00Z,26.1290,-94.8980,62.6,352.0,10.0,-21.5,'1111122,1111122,1111122' 
ADCP,ioos:station:wmo:42390:1,2017-09-23T19:24:00Z,26.1290,-94.8980,62.6,45.0,5.5,-15.6,'1111122,1111122,1111122' 
ADCP,ioos:station:wmo:42390:1,2017-09-23T20:24:00Z,26.1290,-94.8980,62.6,348.0,11.0,-21.0,'1111122,1111122,1111122' 
ADCP,ioos:station:wmo:42390:1,2017-09-23T21:24:00Z,26.1290,-94.8980,62.6,90.0,7.7,-10.2,'1111122,1111122,1111122' 
ADCP,ioos:station:wmo:42390:1,2017-09-23T22:24:00Z,26.1290,-94.8980,62.6,156.0,27.0,5.4,'1111122,1111122,1111122' 
ADCP,ioos:station:wmo:42390:1,2017-09-23T23:24:00Z,26.1290,-94.8980,62.6,160.0,26.6,6.7,'1111122,1111122,1111122' 
ADCP,ioos:station:wmo:42390:1,2017-09-24T00:34:00Z,26.1290,-94.8980,62.6,46.0,6.4,-14.0,'1111122,1111122,1111122' 
ADCP,ioos:station:wmo:42390:1,2017-09-24T01:24:00Z,26.1290,-94.8980,62.6,145.0,10.1,-2.9,'1111122,1111122,1111122' 
ADCP,ioos:station:wmo:42390:1,2017-09-24T02:24:00Z,26.1290,-94.8980,62.6,127.0,12.2,-2.0,'1111122,1111122,1111122' 
ADCP,ioos:station:wmo:42390:1,2017-09-24T03:34:00Z,26.1290,-94.8980,62.6,43.0,6.5,-9.3,'1111122,1111122,1111122' 
ADCP,ioos:station:wmo:42390:1,2017-09-24T04:24:00Z,26.1290,-94.8980,62.6,201.0,1.9,-9.5,'1111122,1111122,1111122' 
ADCP,ioos:station:wmo:42390:1,2017-09-24T05:24:00Z,26.1290,-94.8980,62.6,137.0,17.2,3.2,'1111122,1111122,1111122' 
ADCP,ioos:station:wmo:42390:1,2017-09-24T06:24:00Z,26.1290,-94.8980,62.6,132.0,17.5,5.7,'1111122,1111122,1111122' 
ADCP,ioos:station:wmo:42390:1,2017-09-24T07:24:00Z,26.1290,-94.8980,62.6,120.0,13.6,3.1,'1111122,1111122,1111122' 
ADCP,ioos:station:wmo:42390:1,2017-09-24T08:24:00Z,26.1290,-94.8980,62.6,97.0,8.3,-6.2,'1111122,1111122,1111122' 
ADCP,ioos:station:wmo:42390:1,2017-09-24T09:24:00Z,26.1290,-94.8980,62.6,136.0,15.0,3.1,'1111122,1111122,1111122' 
ADCP,ioos:station:wmo:42390:1,2017-09-24T10:24:00Z,26.1290,-94.8980,62.6,29.0,11.3,-16.8,'1111122,1111122,1111122' 
ADCP,ioos:station:wmo:42390:1,2017-09-24T11:24:00Z,26.1290,-94.8980,62.6,113.0,6.9,-7.9,'1111122,1111122,1111122' 
ADCP,ioos:station:wmo:42390:1,2017-09-24T12:24:00Z,26.1290,-94.8980,62.6,118.0,18.3,-1.3,'1111122,1111122,1111122' 
ADCP,ioos:station:wmo:42390:1,2017-09-24T13:24:00Z,26.1290,-94.8980,62.6,152.0,28.0,13.4,'1111122,1111122,1111122' 
ADCP,ioos:station:wmo:42390:1,2017-09-24T14:24:00Z,26.1290,-94.8980,62.6,145.0,16.0,0.3,'1111122,1111122,1111122' 
ADCP,ioos:station:wmo:42390:1,2017-09-24T15:24:00Z,26.1290,-94.8980,62.6,153.0,15.0,0.5,'1111122,1111122,1111122' 
ADCP,ioos:station:wmo:42390:1,2017-09-24T16:24:00Z,26.1290,-94.8980,62.6,134.0,10.7,-6.8,'1111122,1111122,1111122' 
ADCP,ioos:station:wmo:42390:1,2017-09-24T17:24:00Z,26.1290,-94.8980,62.6,99.0,3.0,-12.8,'1111122,1111122,1111122' 
ADCP,ioos:station:wmo:42390:1,2017-09-24T18:24:00Z,26.1290,-94.8980,62.6,3.0,5.7,-16.0,'1111122,1111122,1111122' 
ADCP,ioos:station:wmo:42390:1,2017-09-24T19:24:00Z,26.1290,-94.8980,62.6,158.0,13.1,-2.8,'1111122,1111122,1111122' 
ADCP,ioos:station:wmo:42390:1,2017-09-24T20:24:00Z,26.1290,-94.8980,62.6,7.0,3.2,-17.9,'1111122,1111122,1111122' 
ADCP,ioos:station:wmo:42390:1,2017-09-24T21:24:00Z,26.1290,-94.8980,62.6,186.0,7.1,-6.3,'1111122,1111122,1111122' 
ADCP,ioos:station:wmo:42390:1,2017-09-24T22:24:00Z,26.1290,-94.8980,62.6,126.0,2.4,-13.0,'1111122,1111122,1111122' 
ADCP,ioos:station:wmo:42390:1,2017-09-24T23:24:00Z,26.1290,-94.8980,62.6,333.0,10.0,-23.6,'1111122,1111122,1111122' 
ADCP,ioos:station:wmo:42390:1,2017-09-25T00:24:00Z,26.1290,-94.8980,62.6,317.0,4.5,-12.9,'1111122,1111122,1111122' 
ADCP,ioos:station:wmo:42390:1,2017-09-25T01:24:00Z,26.1290,-94.8980,62.6,333.0,10.6,-20.0,'1111122,1111122,1111122' 
ADCP,ioos:station:wmo:42390:1,2017-09-25T03:24:00Z,26.1290,-94.8980,62.6,147.0,6.7,-5.7,'1111122,1111122,1111122' 
ADCP,ioos:station:wmo:42390:1,2017-09-25T04:24:00Z,26.1290,-94.8980,62.6,136.0,3.6,-10.4,'1111122,1111122,1111122' 
ADCP,ioos:station:wmo:42390:1,2017-09-25T05:24:00Z,26.1290,-94.8980,62.6,148.0,26.6,11.6,'1111122,1111122,1111122' 
ADCP,ioos:station:wmo:42390:1,2017-09-25T06:24:00Z,26.1290,-94.8980,62.6,160.0,19.5,8.7,'1111122,1111122,1111122' 
ADCP,ioos:station:wmo:42390:1,2017-09-25T07:24:00Z,26.1290,-94.8980,62.6,8.0,2.8,-11.7,'1111122,1111122,1111122' 
ADCP,ioos:station:wmo:42390:1,2017-09-25T08:24:00Z,26.1290,-94.8980,62.6,90.0,1.3,-7.7,'1111122,1111122,1111122' 
ADCP,ioos:station:wmo:42390:1,2017-09-25T09:24:00Z,26.1290,-94.8980,62.6,348.0,11.0,-18.3,'1111122,1111122,1111122' 
ADCP,ioos:station:wmo:42390:1,2017-09-25T10:14:00Z,26.1290,-94.8980,62.6,4.0,11.3,-15.5,'1111122,1111122,1111122' 
ADCP,ioos:station:wmo:42390:1,2017-09-25T11:24:00Z,26.1290,-94.8980,62.6,15.0,5.7,-14.1,'1111122,1111122,1111122' 
ADCP,ioos:station:wmo:42390:1,2017-09-25T12:14:00Z,26.1290,-94.8980,62.6,57.0,4.5,-11.5,'1111122,1111122,1111122' 
ADCP,ioos:station:wmo:42390:1,2017-09-25T13:24:00Z,26.1290,-94.8980,62.6,346.0,9.5,-20.6,'1111122,1111122,1111122' 
ADCP,ioos:station:wmo:42390:1,2017-09-25T14:14:00Z,26.1290,-94.8980,62.6,145.0,18.6,2.8,'1111122,1111122,1111122' 
ADCP,ioos:station:wmo:42390:1,2017-09-25T17:24:00Z,26.1290,-94.8980,62.6,150.0,37.5,16.8,'1111122,1111122,1111122' 
ADCP,ioos:station:wmo:42390:1,2017-09-25T18:24:00Z,26.1290,-94.8980,62.6,155.0,35.7,16.6,'1111122,1111122,1111122' 
ADCP,ioos:station:wmo:42390:1,2017-09-25T19:24:00Z,26.1290,-94.8980,62.6,156.0,40.5,22.6,'1111122,1111122,1111122' 
ADCP,ioos:station:wmo:42390:1,2017-09-25T21:24:00Z,26.1290,-94.8980,62.6,162.0,25.7,8.8,'1111122,1111122,1111122' 
ADCP,ioos:station:wmo:42390:1,2017-09-25T22:24:00Z,26.1290,-94.8980,62.6,160.0,31.0,10.9,'1111122,1111122,1111122' 
ADCP,ioos:station:wmo:42390:1,2017-09-25T23:24:00Z,26.1290,-94.8980,62.6,156.0,7.7,-4.1,'1111122,1111122,1111122' 
ADCP,ioos:station:wmo:42390:1,2017-09-26T00:24:00Z,26.1290,-94.8980,62.6,147.0,9.5,-6.0,'1111122,1111122,1111122' 
ADCP,ioos:station:wmo:42390:1,2017-09-26T01:24:00Z,26.1290,-94.8980,62.6,355.0,11.4,-19.7,'1111122,1111122,1111122' 
ADCP,ioos:station:wmo:42390:1,2017-09-26T02:24:00Z,26.1290,-94.8980,62.6,359.0,23.0,-25.9,'1111122,1111122,1111122' 